View Events - EPG Web Pony Competition Ranking System

Go to content

Web Pony Competition Result System

© 2016 EPG



Enter or choose Event ID   * required

This page automatically refresh every 120 seconds. Please press the 'Refresh Page' button above for immediate refresh of result.

Event: 52   Stable:  EPG


Pony League Event No. 36 @ EPG - Beach Gate Slalom


Course:  23

Beach Gate Slalom

Allowed Runs:  15

Date from:  2016-09-08 01:00:00 to: 2016-09-09 01:00:00 (SLT)

Status:  finished

Host:  Ralna Payne



Ranking


Rank Pony Name Points Time Faults Missed G # Runs #Best Run
1taka Salome118254.599998001513
2Windancer Farslider117955.360001001511
3Pricilla Slade117855.730000001514
4JoanTemp Resident117755.97000100117
5Renztoy Resident117656.040001001515
6debs Bombastic117656.130001001510
7Ralna Payne117157.290001001010
8JoanMitchel Resident117057.59999800159
9Jill Freenote116957.79999900157
10Nico Waxen116858.169998002010
11HeatherBroadchest Resident116259.61999900159
12wetjody Resident115960.400002001512
13AshleyK2813 Resident115860.7099990088
14NariaSummerResident Resident115561.43999900156
15yyCloexx Resident115461.599998001512
16Liviana Benelli115062.61999900156
17MarieCheverle Resident113160.270000101511
18Fayth7 Resident112861.110001101712
19Ayesha Askham111664.1600041072
20PeachyDoll Resident111158.29000120198
21Cindari Resident109961.290001201515
22Drizipet Resident107567.4400022044
23NylonAlexa Resident106263.599998301515
24Attrisia Resident104672.5700001-1537
25nana247 Resident104069.08000230153
26Chianna Nozaki88167.800003531612


Recent Runs

97, 98 or 99 faults indicate aborted runs (by system/pony) due to cheat detection (e.g. fly/run) or reset of the timer system


Run # Pony Name Points Time Fault Missed G Date of Run (UTC)
405Ralna Payne117157.290001002016-09-09 07:44:16
404Ralna Payne116758.410000002016-09-09 07:42:50
403JoanTemp Resident117556.259998002016-09-09 07:41:18
402JoanTemp Resident49629.1500002182016-09-09 07:39:52
401JoanTemp Resident114457.230000102016-09-09 07:39:04
400Ralna Payne114556.779999102016-09-09 07:37:03
399Ralna Payne102253.689999232016-09-09 07:35:58
398Ralna Payne114058.200001102016-09-09 07:34:53
397JoanTemp Resident117556.439999002016-09-09 07:32:32
396JoanTemp Resident117755.970001002016-09-09 07:29:55
395JoanTemp Resident117356.930000002016-09-09 07:28:17
394Ralna Payne116858.220001002016-09-09 07:26:15
393Ralna Payne116658.669998002016-09-09 07:25:06
392Ralna Payne113958.430000102016-09-09 07:23:53
391Ralna Payne59633.7400021162016-09-09 07:22:43
390Ralna Payne110857.080002112016-09-09 07:21:52
389JoanTemp Resident114556.840000102016-09-09 07:20:18
388JoanTemp Resident66838.9900021142016-09-09 07:19:10
387JoanTemp Resident117157.419998002016-09-09 07:18:13
386JoanTemp Resident114357.259998102016-09-09 07:16:50
385JoanTemp Resident117057.529999002016-09-09 07:14:39
384wetjody Resident111265.239998102016-09-09 07:09:40
383wetjody Resident0199.0000000332016-09-09 07:06:59
382wetjody Resident17955.4199981272016-09-09 07:05:40
381wetjody Resident115960.400002002016-09-09 07:04:11
380wetjody Resident95168.339996512016-09-09 07:01:55
379wetjody Resident104062.070000402016-09-09 07:00:01
378wetjody Resident110061.009998202016-09-09 06:58:32
377wetjody Resident104858.130001312016-09-09 06:56:58
376wetjody Resident35228.0000002222016-09-09 06:55:41
375wetjody Resident109362.889999202016-09-09 06:54:49
374wetjody Resident0199.000000002016-09-09 06:53:13
373wetjody Resident0199.000000002016-09-09 06:51:36
372wetjody Resident106961.889999302016-09-09 06:47:17
371wetjody Resident0199.000000002016-09-09 06:45:29
370wetjody Resident104368.379997302016-09-09 06:43:36
369Renztoy Resident117656.040001002016-09-09 06:34:21
368Renztoy Resident22418.6000004242016-09-09 06:33:13
367Renztoy Resident117257.020000002016-09-09 06:31:30
366Renztoy Resident117456.680000002016-09-09 06:29:32
365Renztoy Resident117257.110001002016-09-09 06:27:51
364Renztoy Resident117157.400002002016-09-09 06:25:43
363Renztoy Resident116658.599998002016-09-09 06:24:30
362Renztoy Resident82848.790001382016-09-09 06:23:10
361Renztoy Resident111756.860001202016-09-09 06:21:45
360Renztoy Resident106256.650002402016-09-09 06:20:29
359Attrisia Resident56032.7999991172016-09-09 06:15:40
358Attrisia Resident70442.2900011132016-09-09 06:15:02
357Attrisia Resident39628.6000003202016-09-09 06:14:16
356Attrisia Resident42430.1100012202016-09-09 06:13:43
355Attrisia Resident49632.1100012182016-09-09 06:13:08
354Attrisia Resident103962.380001402016-09-09 06:12:32
353Attrisia Resident104058.099998222016-09-09 06:11:25
352Attrisia Resident102665.529999402016-09-09 06:10:23
351Attrisia Resident97863.720001602016-09-09 06:09:13
350Attrisia Resident106968.779999202016-09-09 06:08:04
349Attrisia Resident95864.709999422016-09-09 06:06:49
348Attrisia Resident69951.2900011132016-09-09 06:05:36
347Attrisia Resident39638.5099983202016-09-09 06:04:40
346Attrisia Resident44032.2200014182016-09-09 06:03:57
345Attrisia Resident53235.2799992172016-09-09 06:03:21
344Attrisia Resident56835.0099982162016-09-09 06:02:41
343Attrisia Resident112162.869999102016-09-09 06:02:01
342Attrisia Resident60439.4900022152016-09-09 06:00:54
341Attrisia Resident565.1300001312016-09-09 06:00:12
340Attrisia Resident97768.930000412016-09-09 06:00:01
339Attrisia Resident109063.740002202016-09-09 05:58:47
338Attrisia Resident95362.830002702016-09-09 05:57:38
337Attrisia Resident98262.709999602016-09-09 05:56:31
336Attrisia Resident112162.820000102016-09-09 05:55:22
335Attrisia Resident928.5100001302016-09-09 05:54:14
334Attrisia Resident100661.709999412016-09-09 05:54:00
333Attrisia Resident109761.849998202016-09-09 05:52:53
332Attrisia Resident20813.1100002262016-09-09 05:51:46
331Attrisia Resident109369.779999102016-09-09 05:51:24
330Attrisia Resident94564.919998702016-09-09 05:50:10
329Attrisia Resident16412.6600001282016-09-09 05:48:59
328Attrisia Resident564.9300001312016-09-09 05:48:42
327Attrisia Resident98460.020000512016-09-09 05:48:29
326Attrisia Resident105860.599998122016-09-09 05:47:20
325Attrisia Resident102960.950001222016-09-09 05:46:14
324Attrisia Resident91160.400002532016-09-09 05:45:05
323Attrisia Resident106064.019997302016-09-09 05:43:56
322Attrisia Resident100464.040001502016-09-09 05:42:46
321Attrisia Resident90565.839996712016-09-09 05:41:36
320Attrisia Resident83866.709999822016-09-09 05:40:20
319Attrisia Resident10813.5500003282016-09-09 05:39:06
318Attrisia Resident83376.830002802016-09-09 05:38:46
317JoanMitchel Resident117057.650002002016-09-09 05:33:52
316JoanMitchel Resident114257.700001102016-09-09 05:32:45
315JoanMitchel Resident114257.619999102016-09-09 05:31:27
314Attrisia Resident77470.5500031112016-09-09 05:30:18
313JoanMitchel Resident114257.570000102016-09-09 05:28:58
312Attrisia Resident86967.930000812016-09-09 05:27:51
311JoanMitchel Resident111457.740002202016-09-09 05:26:26
310Attrisia Resident97065.510002602016-09-09 05:25:20
309JoanMitchel Resident108757.439999302016-09-09 05:24:02
308Attrisia Resident93862.599998522016-09-09 05:22:56
307JoanMitchel Resident117057.599998002016-09-09 05:21:43
306Attrisia Resident104672.570000102016-09-09 05:20:34
305JoanMitchel Resident108657.730000302016-09-09 05:19:09
304Attrisia Resident94377.489998412016-09-09 05:17:52
303JoanMitchel Resident30018.8400000252016-09-09 05:16:01
302JoanMitchel Resident0199.000000072016-09-09 05:15:27
301Attrisia Resident89675.220001602016-09-09 05:14:34
300JoanMitchel Resident111557.380001202016-09-09 05:12:59
299Attrisia Resident74570.8799971212016-09-09 05:11:52
298JoanMitchel Resident114157.820000102016-09-09 05:10:31
297Attrisia Resident79273.1800001002016-09-09 05:09:07
296JoanMitchel Resident108358.439999302016-09-09 05:07:20
295Attrisia Resident84369.4000021002016-09-09 05:06:09
294Attrisia Resident66879.2300031132016-09-09 05:03:49
293JoanMitchel Resident105957.380001402016-09-09 05:01:15
292JoanMitchel Resident116558.950001002016-09-09 04:59:55
291Renztoy Resident116858.040001002016-09-09 04:53:14
290Renztoy Resident116060.090000002016-09-09 04:52:00
289Renztoy Resident111557.410000202016-09-09 04:50:42
288Renztoy Resident110059.070000112016-09-09 04:49:30
287Renztoy Resident98956.779999422016-09-09 04:48:25
286Liviana Benelli109961.330002202016-09-09 02:11:14
285Liviana Benelli113659.000000102016-09-09 02:10:08
284Liviana Benelli110559.820000202016-09-09 02:08:31
283Liviana Benelli107759.970001302016-09-09 02:07:26
282Liviana Benelli113559.330002102016-09-09 02:06:22
281Liviana Benelli110759.389999202016-09-09 02:04:29
280Liviana Benelli113559.410000102016-09-09 02:03:24
279Liviana Benelli108959.930000022016-09-09 02:02:19
278Liviana Benelli110859.060001202016-09-09 02:01:14
277Liviana Benelli115062.619999002016-09-09 02:00:11
276Liviana Benelli112960.930000102016-09-09 01:58:55
275Liviana Benelli110460.080002202016-09-09 01:57:21
274Liviana Benelli113060.669998102016-09-09 01:56:11
273Liviana Benelli96461.110001332016-09-09 01:55:01
272Liviana Benelli0199.000000002016-09-09 01:53:45
271taka Salome115554.340000102016-09-08 23:47:05
270taka Salome70437.1100011132016-09-08 23:46:03
269taka Salome118254.599998002016-09-08 23:45:09
268taka Salome118254.619999002016-09-08 23:44:01
267taka Salome26420.7999990262016-09-08 23:43:01
266taka Salome118154.990002002016-09-08 23:42:34
265taka Salome118154.750000002016-09-08 23:41:23
264taka Salome117955.290001002016-09-08 23:40:17
263taka Salome23620.6600001262016-09-08 23:38:25
262taka Salome117955.310001002016-09-08 23:37:31
261taka Salome117556.400002002016-09-08 23:36:32
260taka Salome15615.6600000292016-09-08 23:35:30
259taka Salome115155.259998102016-09-08 23:35:09
258taka Salome118055.090000002016-09-08 23:33:45
257taka Salome114955.889999102016-09-08 23:32:33
256HeatherBroadchest Resident111357.910000202016-09-08 23:13:59
255HeatherBroadchest Resident113958.259998102016-09-08 23:11:19
254PeachyDoll Resident121.9500000332016-09-08 23:10:05
253PeachyDoll Resident122.3500000332016-09-08 23:10:01
252PeachyDoll Resident122.0200000332016-09-08 23:09:57
251PeachyDoll Resident123.5100000332016-09-08 23:09:52
250PeachyDoll Resident124.1100000332016-09-08 23:09:42
249PeachyDoll Resident18027.2199993262016-09-08 23:09:38
248HeatherBroadchest Resident99258.060001512016-09-08 23:09:07
247PeachyDoll Resident102459.099998502016-09-08 23:06:54
246HeatherBroadchest Resident0199.000000002016-09-08 23:05:51
245PeachyDoll Resident0199.000000002016-09-08 23:05:17
244HeatherBroadchest Resident113958.349998102016-09-08 23:04:12
243PeachyDoll Resident18023.6200013262016-09-08 23:03:04
242HeatherBroadchest Resident108358.270000302016-09-08 23:02:33
241PeachyDoll Resident108458.090000302016-09-08 23:01:27
240PeachyDoll Resident13610.1500002282016-09-08 23:00:25
239HeatherBroadchest Resident116259.619999002016-09-08 23:00:05
238PeachyDoll Resident111158.290001202016-09-08 22:58:53
237HeatherBroadchest Resident105259.139999402016-09-08 22:57:50
236PeachyDoll Resident102658.630001502016-09-08 22:56:31
235HeatherBroadchest Resident113260.090000102016-09-08 22:55:28
234PeachyDoll Resident1216.5900000332016-09-08 22:54:16
233PeachyDoll Resident94564.910004702016-09-08 22:53:59
232HeatherBroadchest Resident110859.040001202016-09-08 22:52:50
231PeachyDoll Resident93161.389999802016-09-08 22:51:24
230HeatherBroadchest Resident104461.040001402016-09-08 22:50:18
229PeachyDoll Resident93161.400002802016-09-08 22:49:09
228HeatherBroadchest Resident105059.730000402016-09-08 22:48:01
227HeatherBroadchest Resident96367.459999602016-09-08 22:46:22
226HeatherBroadchest Resident106862.240002302016-09-08 22:44:58
225HeatherBroadchest Resident92867.230003612016-09-08 22:43:30
224PeachyDoll Resident89071.519997802016-09-08 22:41:58
223PeachyDoll Resident0199.000000002016-09-08 22:37:56
222Windancer Farslider117855.509998002016-09-08 22:18:28
221Windancer Farslider117955.439999002016-09-08 22:17:05
220Windancer Farslider114856.020000102016-09-08 22:15:55
219Windancer Farslider114856.240002102016-09-08 22:14:46
218Windancer Farslider117955.360001002016-09-08 22:12:53
217Windancer Farslider114955.840000102016-09-08 22:11:26
216Windancer Farslider117556.270000002016-09-08 22:10:03
215Windancer Farslider114457.180000102016-09-08 22:08:39
214Windancer Farslider111657.049999202016-09-08 22:07:29
213Windancer Farslider117257.240002002016-09-08 22:06:17
212Windancer Farslider117356.750000002016-09-08 22:04:52
211Windancer Farslider117057.619999002016-09-08 22:03:33
210Windancer Farslider116658.580002002016-09-08 22:02:06
209Windancer Farslider115960.410000002016-09-08 22:00:42
208Windancer Farslider107360.840000302016-09-08 21:59:02
207NariaSummerResident Resident104959.980000402016-09-08 20:49:44
206NariaSummerResident Resident112960.930000102016-09-08 20:48:38
205NariaSummerResident Resident101661.020000502016-09-08 20:47:17
204NariaSummerResident Resident105864.739998302016-09-08 20:45:56
203NariaSummerResident Resident98861.040001602016-09-08 20:44:26
202NariaSummerResident Resident107161.490002302016-09-08 20:43:06
201NariaSummerResident Resident110061.110001202016-09-08 20:41:43
200NariaSummerResident Resident101860.630001502016-09-08 20:39:59
199NariaSummerResident Resident112861.070000102016-09-08 20:38:50
198NariaSummerResident Resident115561.439999002016-09-08 20:36:43
197NariaSummerResident Resident106961.799999302016-09-08 20:35:21
196NariaSummerResident Resident104560.950001402016-09-08 20:34:02
195NariaSummerResident Resident98462.049999602016-09-08 20:32:44
194NariaSummerResident Resident95761.860001702016-09-08 20:31:30
193NariaSummerResident Resident107360.910000302016-09-08 20:30:20
192Fayth7 Resident113659.160000102016-09-08 20:19:32
191Fayth7 Resident110659.549999202016-09-08 20:17:54
190Fayth7 Resident110460.130001202016-09-08 20:14:46
189Fayth7 Resident112262.660000102016-09-08 20:13:34
188Fayth7 Resident110559.889999202016-09-08 20:11:34
187Fayth7 Resident112861.110001102016-09-08 20:10:16
186nana247 Resident80869.1699981012016-09-08 20:01:24
185nana247 Resident19628.3099995242016-09-08 19:59:36
184nana247 Resident85968.440002722016-09-08 19:55:42
183nana247 Resident88257.660000912016-09-08 19:54:07
182nana247 Resident90962.980000622016-09-08 19:52:05
181nana247 Resident100570.940002402016-09-08 19:50:18
180nana247 Resident97763.860001602016-09-08 19:48:17
179Nico Waxen0199.000000002016-09-08 19:46:36
178nana247 Resident66853.130001792016-09-08 19:41:08
177Pricilla Slade117755.770000002016-09-08 19:40:02
176Nico Waxen114257.680000102016-09-08 19:38:47
175nana247 Resident92869.239998702016-09-08 19:37:46
174Pricilla Slade117855.730000002016-09-08 19:36:22
173Nico Waxen41626.3799991212016-09-08 19:35:12
172Pricilla Slade117556.270000002016-09-08 19:34:43
171Nico Waxen117157.490002002016-09-08 19:33:24
170Pricilla Slade114756.400002102016-09-08 19:32:22
169Nico Waxen106256.619999402016-09-08 19:31:11
168nana247 Resident98269.559998502016-09-08 19:30:11
167Pricilla Slade112056.099998202016-09-08 19:28:53
166Nico Waxen126.8600000332016-09-08 19:27:35
165nana247 Resident0199.000000022016-09-08 19:26:31
164Pricilla Slade114656.580002102016-09-08 19:25:10
163Nico Waxen114556.980000102016-09-08 19:23:57
162nana247 Resident93166.370003612016-09-08 19:22:58
161Pricilla Slade109555.320000302016-09-08 19:21:44
160NylonAlexa Resident106263.599998302016-09-08 19:19:53
159Nico Waxen111557.410000202016-09-08 19:18:31
158nana247 Resident104069.080002302016-09-08 19:17:29
157Pricilla Slade117656.020000002016-09-08 19:16:08
156NylonAlexa Resident103064.680000402016-09-08 19:15:01
155Nico Waxen0199.000000002016-09-08 19:12:49
154Jill Freenote111357.970001202016-09-08 19:11:48
153nana247 Resident80968.7699971012016-09-08 19:10:46
152Pricilla Slade117057.580002002016-09-08 19:09:32
151NylonAlexa Resident95362.939999702016-09-08 19:08:05
150Nico Waxen111457.590000202016-09-08 19:06:57
149Jill Freenote114457.110001102016-09-08 19:05:57
148nana247 Resident99694.160004102016-09-08 19:04:55
147Pricilla Slade114457.160000102016-09-08 19:03:14
146NylonAlexa Resident105365.839996302016-09-08 19:02:04
145Nico Waxen116858.169998002016-09-08 19:00:53
144Jill Freenote105857.669998402016-09-08 18:59:40
143Pricilla Slade117257.000000002016-09-08 18:58:40
142NylonAlexa Resident95263.070000702016-09-08 18:57:31
141Nico Waxen116159.959999002016-09-08 18:56:16
140Jill Freenote105757.939999402016-09-08 18:55:13
139Pricilla Slade117257.169998002016-09-08 18:54:10
138NylonAlexa Resident99267.129997502016-09-08 18:52:07
137Nico Waxen107759.830002302016-09-08 18:50:48
136Jill Freenote108557.840000302016-09-08 18:49:45
135Pricilla Slade117057.529999002016-09-08 18:48:45
134NylonAlexa Resident97963.349998602016-09-08 18:47:32
133Nico Waxen113659.049999102016-09-08 18:46:24
132Pricilla Slade108557.759998302016-09-08 18:45:14
131NylonAlexa Resident92270.589996702016-09-08 18:44:00
130Nico Waxen5613.7200001312016-09-08 18:42:40
129Pricilla Slade108657.560001302016-09-08 18:42:22
128NylonAlexa Resident97564.489998602016-09-08 18:40:42
127Nico Waxen116159.820000002016-09-08 18:39:27
126NylonAlexa Resident87471.669998622016-09-08 18:37:57
125Nico Waxen113260.099998102016-09-08 18:36:27
124NylonAlexa Resident71882.5299991022016-09-08 18:35:24
123Nico Waxen96459.110001242016-09-08 18:33:00
122NylonAlexa Resident75990.4000021002016-09-08 18:31:55
121Nico Waxen127.5700000332016-09-08 18:30:09
120Nico Waxen0199.000000002016-09-08 18:28:56
119NylonAlexa Resident0199.0000000332016-09-08 18:26:52
118NylonAlexa Resident0113.2799990332016-09-08 18:25:29
117NylonAlexa Resident44864.0800023172016-09-08 18:23:36
116Jill Freenote98263.599998232016-09-08 17:01:03
115Jill Freenote23616.7999991262016-09-08 16:59:54
114Jill Freenote116758.250000002016-09-08 16:59:29
113Jill Freenote116957.799999002016-09-08 16:58:20
112Jill Freenote116858.240002002016-09-08 16:57:13
111Jill Freenote116159.759998002016-09-08 16:55:48
110Jill Freenote108059.000000302016-09-08 16:54:25
109Jill Freenote105159.459999402016-09-08 16:53:17
108Jill Freenote0199.000000002016-09-08 16:51:44
107Jill Freenote50443.6199993172016-09-08 16:48:08
106Fayth7 Resident110559.900002202016-09-08 16:33:19
105Fayth7 Resident0392.0499882182016-09-08 16:32:09
104Fayth7 Resident103663.110001402016-09-08 16:24:23
103Fayth7 Resident104062.169998402016-09-08 16:22:32
102Fayth7 Resident109861.599998202016-09-08 16:21:00
101Fayth7 Resident109961.400002202016-09-08 16:17:23
100Fayth7 Resident112362.330002102016-09-08 16:15:45
99Fayth7 Resident110167.769997102016-09-08 16:12:29
98Fayth7 Resident99265.040001412016-09-08 16:10:34
97Fayth7 Resident125.6800000332016-09-08 16:07:36
96Fayth7 Resident54045.5000003162016-09-08 16:07:30
95Ayesha Askham100663.740002502016-09-08 15:17:05
94Ayesha Askham102262.529999222016-09-08 15:15:49
93Ayesha Askham70955.750000962016-09-08 15:13:44
92Ayesha Askham101361.900002502016-09-08 15:12:32
91Ayesha Askham95968.330002602016-09-08 15:11:18
90Ayesha Askham111664.160004102016-09-08 15:09:38
89Ayesha Askham94963.950001702016-09-08 15:08:13
88AshleyK2813 Resident115860.709999002016-09-08 13:42:53
87AshleyK2813 Resident0199.000000002016-09-08 13:41:46
86AshleyK2813 Resident564.2700001312016-09-08 13:40:24
85AshleyK2813 Resident101760.910000502016-09-08 13:40:15
84AshleyK2813 Resident95966.269997512016-09-08 13:39:05
83AshleyK2813 Resident109063.549999202016-09-08 13:37:56
82AshleyK2813 Resident97863.580002602016-09-08 13:36:47
81AshleyK2813 Resident98974.779999402016-09-08 13:29:24
80Chianna Nozaki22828.3099990272016-09-08 13:23:26
79Chianna Nozaki83369.839996912016-09-08 13:22:57
78Chianna Nozaki74074.0500031302016-09-08 13:21:38
77Chianna Nozaki29629.0400014222016-09-08 13:19:01
76Chianna Nozaki88167.800003532016-09-08 13:18:27
75Chianna Nozaki43955.41999811122016-09-08 13:17:12
74Chianna Nozaki83467.580002822016-09-08 13:16:06
73Chianna Nozaki16415.7500001282016-09-08 13:14:40
72Chianna Nozaki42039.8400006172016-09-08 13:14:19
71Chianna Nozaki59360.7799996112016-09-08 13:13:35
70Chianna Nozaki74675.7099991022016-09-08 13:12:28
69Chianna Nozaki20823.5100002262016-09-08 13:10:03
68Chianna Nozaki68774.4899981132016-09-08 13:09:29
67Chianna Nozaki68488.2200011302016-09-08 13:08:06
66Chianna Nozaki13615.8600002282016-09-08 13:06:34
65Chianna Nozaki57064.5500035122016-09-08 13:06:00
64MarieCheverle Resident104860.220001402016-09-08 12:42:18
63MarieCheverle Resident110160.779999202016-09-08 12:41:02
62MarieCheverle Resident107460.680000302016-09-08 12:39:44
61MarieCheverle Resident106660.630001212016-09-08 12:38:24
60MarieCheverle Resident113160.270000102016-09-08 12:36:57
59MarieCheverle Resident110360.330002202016-09-08 12:35:45
58MarieCheverle Resident112960.869999102016-09-08 12:34:21
57MarieCheverle Resident107560.480000302016-09-08 12:33:10
56MarieCheverle Resident107360.990002302016-09-08 12:31:36
55MarieCheverle Resident103962.470001402016-09-08 12:30:19
54MarieCheverle Resident101958.459999412016-09-08 12:29:08
53MarieCheverle Resident101561.330002502016-09-08 12:27:38
52MarieCheverle Resident107261.110001302016-09-08 12:26:15
51MarieCheverle Resident98061.220001512016-09-08 12:24:58
50MarieCheverle Resident20814.9300002262016-09-08 12:23:44
49Cindari Resident109961.290001202016-09-08 12:16:53
48Cindari Resident92461.000000712016-09-08 12:15:40
47Cindari Resident98861.200001602016-09-08 12:14:15
46Cindari Resident98661.639999602016-09-08 12:12:37
45Cindari Resident97161.279999422016-09-08 12:10:59
44Cindari Resident101461.549999502016-09-08 12:09:44
43Cindari Resident103962.270000402016-09-08 12:08:20
42Cindari Resident92461.209999712016-09-08 12:06:58
41Cindari Resident95861.580002702016-09-08 12:05:07
40Cindari Resident92261.709999712016-09-08 12:04:00
39Cindari Resident98561.770000602016-09-08 12:02:34
38Cindari Resident101262.150002502016-09-08 12:01:05
37Cindari Resident98462.020000602016-09-08 11:59:53
36Cindari Resident100663.590000502016-09-08 11:58:30
35Cindari Resident91663.110001712016-09-08 11:57:21
34yyCloexx Resident112462.000000102016-09-08 09:37:36
33yyCloexx Resident98661.740002602016-09-08 09:36:10
32yyCloexx Resident109961.310001202016-09-08 09:34:52
31yyCloexx Resident115461.599998002016-09-08 09:33:14
30yyCloexx Resident115361.959999002016-09-08 09:31:31
29yyCloexx Resident100761.330002412016-09-08 09:30:00
28yyCloexx Resident97961.290001512016-09-08 09:28:26
27yyCloexx Resident107161.360001302016-09-08 09:26:32
26yyCloexx Resident106363.310001302016-09-08 09:24:46
25yyCloexx Resident95161.259998612016-09-08 09:23:33
24yyCloexx Resident92961.869999802016-09-08 09:22:17
23yyCloexx Resident83460.549999922016-09-08 09:20:33
22yyCloexx Resident101760.950001502016-09-08 09:19:20
21yyCloexx Resident97861.689999512016-09-08 09:18:09
20yyCloexx Resident0199.000000002016-09-08 09:16:26
19debs Bombastic115055.680000102016-09-08 09:07:22
18debs Bombastic64838.2400023132016-09-08 09:06:22
17debs Bombastic644.4800002302016-09-08 09:05:38
16debs Bombastic20012.6100001272016-09-08 09:05:26
15debs Bombastic1369.3500002282016-09-08 09:05:04
14debs Bombastic117656.130001002016-09-08 09:04:15
13debs Bombastic111557.320000202016-09-08 09:03:08
12debs Bombastic111756.889999202016-09-08 09:01:22
11debs Bombastic109156.400002302016-09-08 08:59:55
10debs Bombastic108555.820000212016-09-08 08:58:49
9debs Bombastic114556.820000102016-09-08 08:56:17
8debs Bombastic105157.400002312016-09-08 08:55:09
7debs Bombastic34421.9699991232016-09-08 08:54:06
6debs Bombastic109455.709999302016-09-08 08:53:34
5debs Bombastic112056.070000202016-09-08 08:52:20
4Drizipet Resident107567.440002202016-09-08 08:10:17
3Drizipet Resident103670.129997302016-09-08 08:08:44
2Drizipet Resident95968.440002602016-09-08 08:07:21
1Drizipet Resident93966.290001702016-09-08 08:06:00


Copyright © 2015 Enchanting Pony Girls Stable and Training Center, all rights reserved
Back to content